Погода в Партизанске

Россия / Красноярский край     58°41′06″N   94°14′14″E
темп.,
°C
ветер,
м/с
пор.,
м/с
влажн.,
%
обл.,
%
осадки,
мм/ч
давл.,
гПа
погр.,
м
31 июля, сб
сб3101:00+12ююз1178100 0.0 101310
04:00+13юз0071100 0.0 101210
07:00+16юз126279 0.0 1014112
10:00+20юз334494 0.0 10141332
13:00+20зюз3443100 0.0 10141306
16:00+15зюз2480100 0.5 101586
19:00+18з01751 0.7 1015156
22:00+12с00860 0.0 101610
1 августа, вс
вс101:00+11св00870 0.0 101610
04:00+10ссв11870 0.0 101610
07:00+15св01746 0.0 101579
10:00+21юв114841 0.0 10141477
13:00+24ю1137100 0.0 10122210
16:00+20ююз1152100 0.0 101118
19:00+18сз0055100 0.0 101111
22:00+15в1162100 0.0 101111
2 августа, пн
пн201:00+14св1167100 0.0 101111
04:00+14св117192 0.0 101013
07:00+16ссв1165100 0.0 1010109
10:00+21всв2245100 0.0 1010814
13:00+24всв233698 0.0 10092284
16:00+19всв3659100 0.0 1009341
19:00+16св1171100 0.0 101016
22:00+16ссз1168100 0.0 101011
3 августа, вт
вт301:00+15зсз1173100 0.0 101021
04:00+15с2268100 0.0 100841
07:00+16ссв1168100 0.0 100853
10:00+21ссв1153100 0.0 1008646
13:00+25вюв1140100 0.0 10061622
16:00+25юз2240100 0.0 10051948
19:00+17св4682100 0.9 1006207
22:00+14ссз2297100 3.4 100632
4 августа, ср
ср401:00+15с1193100 3.4 100411
04:00+14сз1191100 0.0 100411
07:00+16сз1287100 0.0 100385
10:00+22с1257100 0.0 1002590
13:00+20ссв2469100 0.1 1003533
16:00+17ссв1288100 2.9 100228
19:00+17с1188100 4.8 100234
22:00+14св2394100 0.0 100263